STARLINK-2283

Last updated on Sat Apr 24 2021 00:02:02 GMT+0000 (Coordinated Universal Time)

1 48014U 21024AP 21113.25001157 .00049308 00000-0 35413-3 0 9998 2 48014 53.0485 55.6677 0000992 73.7939 93.7029 15.73166267 1823

Satellite not in orbit